This is the latest recevied weather packets stored in our database for station/object CT2IRJ-11. If no packets are shown the sender has not sent any weather packets the latest 10 day(s).
| Time | Temp. | Humidity | Pressure | Rain* | Wind** | Luminosity | Snow |
|---|---|---|---|---|---|---|---|
| 1777635510 | 22.78° C | 51% | 1019 hPa | 0 mm | - | 556 W/m² | - |
| 1777635209 | 21.67° C | 51% | 1019.3 hPa | 0 mm | - | 521 W/m² | - |
| 1777634909 | 21.67° C | 51% | 1019.3 hPa | 0 mm | - | 439 W/m² | - |
| 1777634609 | 21.67° C | 54% | 1019.3 hPa | 0 mm | - | 571 W/m² | - |
| 1777634311 | 21.67° C | 52% | 1019.3 hPa | 0 mm | - | 500 W/m² | - |
| 1777634010 | 22.22° C | 52% | 1019.3 hPa | 0 mm | - | 516 W/m² | - |
| 1777633710 | 22.78° C | 50% | 1019.3 hPa | 0 mm | - | 720 W/m² | - |
| 1777633409 | 22.22° C | 54% | 1019.3 hPa | 0 mm | - | 648 W/m² | - |
| 1777633110 | 22.22° C | 53% | 1019.6 hPa | 0 mm | - | 633 W/m² | - |
| 1777632809 | 21.67° C | 56% | 1019.6 hPa | 0 mm | - | 555 W/m² | - |
| 1777632509 | 22.22° C | 53% | 1019.3 hPa | 0 mm | - | 691 W/m² | - |
| 1777632209 | 22.22° C | 52% | 1019.3 hPa | 0 mm | - | 710 W/m² | - |
| 1777631910 | 22.22° C | 54% | 1019.3 hPa | 0 mm | - | 706 W/m² | - |
| 1777631609 | 21.67° C | 54% | 1019.3 hPa | 0 mm | - | 767 W/m² | - |
| 1777631309 | 21.11° C | 57% | 1019.3 hPa | 0 mm | - | 714 W/m² | - |
| 1777631009 | 21.67° C | 55% | 1019.3 hPa | 0 mm | - | 711 W/m² | - |
| 1777630709 | 21.11° C | 58% | 1019.3 hPa | 0 mm | - | 762 W/m² | - |
| 1777630410 | 21.67° C | 54% | 1019.3 hPa | 0 mm | - | 741 W/m² | - |
| 1777630109 | 21.67° C | 55% | 1019.3 hPa | 0 mm | - | 651 W/m² | - |
| 1777629810 | 21.67° C | 56% | 1019.3 hPa | 0 mm | - | 608 W/m² | - |
| 1777629510 | 22.78° C | 54% | 1019.3 hPa | 0 mm | - | 704 W/m² | - |
| 1777629209 | 21.11° C | 58% | 1019.3 hPa | 0 mm | - | 664 W/m² | - |
| 1777628910 | 20.56° C | 60% | 1019.3 hPa | 0 mm | - | 636 W/m² | - |
| 1777628610 | 21.67° C | 56% | 1019.3 hPa | 0 mm | - | 586 W/m² | - |
| 1777628310 | 20.56° C | 58% | 1019.3 hPa | 0 mm | - | 721 W/m² | - |
* Rain latest hour (hover to see other rain measurements)
** Current wind speed in m/s (hover to see current wind gust speed)